Location: Fredericksburg
(30.2750°N, 98.8720°W)
Time: 03:29:28
(UTC-05:00)

Daily predictions for brighter satellites

Satellite Brightness Start Highest point End
(mag) Time Altitude Azimuth Time Altitude Azimuth Time Altitude Azimuth
H-2A R/B 4.2 00:09:07 25° NNW 00:09:07 25° NNW 00:11:07 10° NNW
Nadezhda 3 Rocket 4.5 00:12:40 58° NW 00:12:40 58° NW 00:17:56 10° N
Cosmos 1697 Rocket 4.1 00:13:37 10° NW 00:17:01 32° WNW 00:17:01 32° WNW
SL-16 R/B 3.8 00:22:12 10° N 00:25:26 28° NNE 00:25:26 28° NNE
Terra 4.1 00:30:03 20° NW 00:30:03 20° NW 00:31:49 10° NW
Lacrosse 5 4.1 00:56:51 21° N 00:56:51 21° N 00:58:54 10° NNE
USA 267 3.9 00:49:15 10° NNE 00:55:16 50° NW 00:55:16 50° NW
Cosmos 2360 Rocket 4.1 01:01:42 10° N 01:04:36 24° NNE 01:04:36 24° NNE
NOSS 3-1 (C) 4.3 00:59:29 10° NNW 01:06:22 67° NNE 01:06:22 67° NNE
Cosmos 1980 Rocket 4.4 01:02:52 10° NW 01:04:37 18° WNW 01:04:37 18° WNW
Lacrosse 5 rocket 4.5 01:14:55 10° NNW 01:15:49 15° N 01:15:49 15° N
Cosmos 2322 Rocket 3.9 01:13:26 10° NNW 01:16:01 28° NNW 01:16:01 28° NNW
CZ-2C R/B 4.5 01:31:50 10° N 01:34:42 27° NNW 01:34:42 27° NNW
NOSS 3-1 (A) 4.3 01:32:53 10° NNW 01:39:17 64° NNW 01:39:17 64° NNW
Cosmos 2219 Rocket 4.4 01:45:54 10° NNE 01:49:22 17° ENE 01:49:22 17° ENE
Cosmos 2227 Rocket 3.9 02:22:51 27° NE 02:22:51 27° NE 02:25:39 10° NE
CZ-2D R/B 4.4 02:43:13 10° ENE 02:45:23 14° E 02:45:23 14° E
COSMOS 2428 4.3 02:49:20 10° NNW 02:51:54 27° NNW 02:51:54 27° NNW
Lacrosse 4 Rocket 4.3 03:02:51 12° ENE 03:02:51 12° ENE 03:03:24 10° ENE
USA 234 3.3 03:08:35 76° N 03:08:35 76° N 03:14:44 10° NW
DELTA 2 R/B (1) 4.4 03:15:05 46° NNE 03:15:05 46° NNE 03:19:35 10° NE
ADEOS Rocket 3.9 03:11:41 10° NNE 03:19:09 54° E 03:20:34 48° SE
Cosmos 2297 Rocket 2.9 03:27:30 48° NNW 03:27:30 48° NNW 03:31:51 10° N
Cosmos 2333 Rocket 3.1 03:21:37 10° NNW 03:25:16 41° NNW 03:25:16 41° NNW
ATLAS 2AS CENTAUR R/B 2.8 03:23:56 10° NNW 03:31:13 69° W 03:31:13 69° W
Cosmos 2219 Rocket 3.6 03:28:15 10° NNW 03:31:03 29° NW 03:31:03 29° NW
Cosmos 1980 4.1 03:29:29 10° NNW 03:33:55 56° NNW 03:33:55 56° NNW
SL-16 R/B 3.0 03:43:24 36° SE 03:45:43 56° ENE 03:51:44 10° N
NPP 4.3 03:42:38 10° N 03:46:52 44° NW 03:46:52 44° NW
ATLAS 5 CENTAUR R/B 4.0 03:49:34 15° ESE 03:49:54 15° ESE 03:52:34 10° ENE
Cosmos 2237 Rocket 2.7 03:48:08 10° NNW 03:52:19 48° NW 03:52:19 48° NW
SL-16 R/B 3.0 03:50:00 10° N 03:55:28 48° ENE 03:59:20 19° SE
ADEOS 3.5 03:54:35 10° NNE 03:59:49 81° ESE 03:59:54 80° ESE
CZ-3B DEB 4.4 03:54:53 40° WSW 04:01:12 74° NW 04:15:52 10° NE
Cosmos 2227 Rocket 3.9 04:04:40 20° WNW 04:04:40 20° WNW 04:08:36 10° NNW
Resurs 1-4 Rocket 1.9 03:59:19 10° N 04:04:38 81° WNW 04:04:44 81° W
Cosmos 1570 Rocket 3.9 03:59:23 10° NNW 04:04:42 86° W 04:04:42 86° W
ATLAS 3B CENTAUR R/B 3.4 03:49:02 10° W 04:07:36 78° S 04:13:48 10° ESE
ARIANE 5 R/B 2.3 04:03:45 10° N 04:08:47 80° WNW 04:08:47 80° WNW
Cosmos 2034 Rocket 3.9 04:04:04 10° N 04:10:27 89° W 04:12:20 49° S
UNK 3.7 04:12:55 79° NNW 04:12:55 79° NNW 04:17:15 10° NNW
BREEZE M DEB (TANK) 4.1 04:15:57 29° E 04:15:57 29° E 04:17:18 10° ENE
Cosmos 1707 Rocket 3.5 04:14:39 10° N 04:18:44 77° NNW 04:18:44 77° NNW
COBE Rocket 4.2 04:15:09 10° N 04:19:08 46° NW 04:19:08 46° NW
OAO 3 Copernicus 4.2 04:19:18 66° WNW 04:20:01 89° SSW 04:25:07 10° ESE
Tsikada Rocket 4.0 04:21:32 52° SW 04:23:02 69° W 04:29:25 10° N
Meteosat 1 Rocket2 3.6 04:23:52 44° SE 04:23:52 44° SE 04:26:55 10° E
Cosmos 2263 Rocket 4.0 04:20:19 14° SSE 04:23:50 24° ESE 04:28:14 10° NE
OAO 3 Rocket 3.1 04:25:10 72° S 04:25:27 75° SSE 04:30:24 10° ENE
CZ-2D R/B 2.3 04:21:18 10° N 04:26:19 49° WNW 04:26:42 48° W
Cosmos 2242 Rocket 4.4 04:22:21 10° N 04:26:43 49° E 04:29:08 24° SE
Cosmos 1666 Rocket 4.2 04:28:05 43° WNW 04:28:05 43° WNW 04:31:46 10° N
CZ-3 R/B 4.2 03:27:49 10° W 04:28:32 85° S 04:40:11 10° E
Cosmos 1486 Rocket 3.9 04:31:21 51° S 04:32:42 85° ESE 04:37:56 10° NNE
Cosmos 1455 4.2 04:29:45 10° NNW 04:31:12 19° NW 04:31:12 19° NW
GPS 2-04 Rocket1 2.6 04:36:03 81° S 04:36:03 81° S 04:40:11 10° ESE
Cosmos 1933 Rocket 3.7 04:36:03 44° SSE 04:37:22 71° E 04:41:49 10° N
Lacrosse 4 Rocket 2.9 04:39:11 24° NW 04:39:11 24° NW 04:42:22 10° N
Cosmos 1400 Rocket 3.6 04:38:33 31° SE 04:39:54 45° E 04:43:41 10° NNE
GOES 2 Rocket 4.4 04:38:25 23° W 04:44:40 79° S 04:51:47 10° E
Cosmos 468 Rocket 3.8 04:46:59 10° NNW 04:52:09 75° WSW 04:56:27 15° S
Cosmos 371 Rocket 3.9 04:49:12 10° N 04:53:55 57° ENE 04:58:38 10° SSE
Cosmos 1869 4.4 04:57:46 10° NNW 05:00:43 27° WNW 05:00:43 27° WNW
CZ-2D R/B 4.4 05:06:40 10° NNW 05:10:17 31° WNW 05:11:17 28° WSW
Cosmos 1503 Rocket 4.0 05:08:27 22° SSW 05:11:54 82° WNW 05:17:11 10° NNE
Cosmos 1470 Rocket 4.2 05:11:03 29° WSW 05:12:11 35° W 05:16:08 10° NNW
Okean O Rocket 2.1 05:08:06 10° NNE 05:12:21 56° E 05:16:33 10° S
Cosmos 1763 Rocket 3.4 05:07:31 10° NNW 05:12:45 87° ENE 05:17:51 10° SSE
GP-B 3.2 05:10:36 10° N 05:15:02 78° E 05:19:28 10° S
Cosmos 1634 Rocket 3.9 05:09:51 10° NNW 05:15:58 67° W 05:22:03 10° S
MOS 1-B 4.4 05:10:21 10° N 05:16:04 65° WNW 05:20:25 18° SSW
Cosmos 2279 Rocket 4.4 05:10:08 10° N 05:16:19 67° E 05:22:30 10° SSE
Cosmos 1814 Rocket 4.0 05:11:32 10° NNW 05:16:49 62° WSW 05:22:04 10° S
Cosmos 1603 3.7 05:12:46 10° NNW 05:18:29 88° ENE 05:24:08 10° SSE
CZ-4B R/B 3.1 05:14:40 10° NNE 05:18:59 74° ESE 05:22:43 12° S
NOSS 3-4 (A) 3.9 05:16:15 10° NW 05:23:22 62° WSW 05:30:54 10° SSE
NOSS 3-4 (C) 3.9 05:16:21 10° NW 05:23:29 63° WSW 05:31:01 10° SSE
Cosmos 1869 Rocket 4.1 05:19:34 10° S 05:23:59 62° E 05:28:23 10° NNE
PSLV R/B 3.7 05:20:13 10° N 05:24:09 73° WNW 05:27:04 17° SSW
Abrixas rocket 2.1 05:24:38 28° SW 05:26:12 89° NW 05:29:31 10° NE
USA 215 4.1 05:22:22 10° NE 05:28:32 43° SE 05:34:39 10° SSW
Cosmos 332 Rocket 4.2 05:24:42 10° NNW 05:29:15 42° WSW 05:33:49 10° S
SL-16 R/B 3.9 05:28:29 16° WSW 05:29:35 17° W 05:33:25 10° NW
ATLAS 5 CENTAUR R/B 2.4 05:31:07 19° WSW 05:34:02 40° WNW 05:38:40 10° NNE
SEDSat Delta rocket 4.2 05:30:23 18° SW 05:35:16 62° SSE 05:41:58 10° E
Cosmos 1315 Rocket 2.9 05:31:59 13° SSW 05:35:28 62° W 05:39:28 10° N
Cosmos 1354 Rocket 4.5 05:33:33 16° SW 05:37:26 44° WNW 05:42:28 10° N
SL-16 R/B 3.6 05:35:35 10° WNW 05:39:05 17° W 05:41:04 14° SW
CZ-4B R/B 3.1 05:37:15 10° NNE 05:42:36 84° WNW 05:48:01 10° SSW
PSLV R/B 3.5 05:40:54 10° N 05:45:04 66° WNW 05:49:12 10° SSW
Okean-O 4.4 05:43:06 10° NE 05:47:05 32° E 05:51:03 10° SSE
Okean 1-7 3.5 05:44:44 10° N 05:48:57 62° E 05:53:09 10° SSE
Meteor PRIRODA 4.1 05:45:39 10° NNE 05:49:15 60° E 05:52:51 10° S
H-2A R/B 4.1 05:29:35 14° SW 05:49:27 44° SSE 05:54:31 10° E
Atlas Centaur 2 3.8 05:42:06 11° SW 05:49:33 42° SSE 05:57:14 10° E
ADEOS II 2.4 05:45:36 10° N 05:50:39 50° WNW 05:55:42 10° SSW
Meteor 2-3 Rocket 4.3 05:49:53 10° SSW 05:55:10 40° WNW 06:00:32 10° N
Cosmos 2084 3.2 05:53:47 10° SSW 05:57:53 86° WNW 06:01:47 10° NNE
Cosmos 540 Rocket 3.6 05:52:59 10° NNW 05:58:11 81° ENE 06:03:19 10° SSE
Cosmos 1346 Rocket 3.9 05:54:38 10° N 05:58:30 47° E 06:02:17 10° SSE
CZ-4B DEB 4.4 05:54:59 10° N 06:00:18 54° WNW 06:05:36 10° SSW
Cosmos 1892 4.2 06:00:07 10° SW 06:02:55 20° WNW 06:05:44 10° NNW
IRS-1C Rocket 4.4 05:59:21 10° N 06:04:26 49° WNW 06:09:29 10° SSW
Cosmos 2221 Rocket 3.6 06:00:27 10° N 06:04:58 73° W 06:09:27 10° S
Cosmos 1943 3.2 06:00:01 10° NNW 06:05:38 76° WSW 06:11:16 10° SSE
MTI 3.8 06:03:06 10° SSE 06:06:17 85° E 06:09:31 10° N
CZ-2C R/B 3.8 06:02:30 10° SSE 06:07:07 90° WSW 06:11:51 10° NNW
Cosmos 2263 Rocket 3.0 06:02:32 10° SW 06:07:30 33° WNW 06:12:29 10° N
OAO 3 Rocket 3.9 06:04:21 10° W 06:09:11 52° N 06:13:59 10° ENE
